{"data":{"norad_id":68246,"epoch":"2026-09-19T23:53:12.192000Z","epoch_age_seconds":95155,"freshness":"FRESH","line1":"1 68246U 26054Q   26262.99528000  .00014005  00000+0  42456-3 0  9997","line2":"2 68246  53.1569 104.2033 0001326  79.9948 280.1204 15.34422839 28882","mean_motion":15.34422839,"eccentricity":0.0001326,"inclination_deg":53.1569,"raan_deg":104.2033,"arg_perigee_deg":79.9948,"mean_anomaly_deg":280.1204,"bstar":0.00042456,"rev_number":2888,"period_min":93.84636121152,"perigee_km":461.72827231323,"apogee_km":463.54244514276,"semimajor_km":6840.772358728,"source":"CELESTRAK","updated_at":"2026-09-20T09:00:43.842100Z"}}